This is the latest recevied weather packets stored in our database for station/object W4MSI. If no packets are shown the sender has not sent any weather packets the latest 10 day(s).
| Time | Temp. | Humidity | Pressure | Rain* | Wind** | Luminosity | Snow |
|---|---|---|---|---|---|---|---|
| 1778061729 | 10° C | 98% | 1009.2 hPa | 0 mm | - | 0 W/m² | - |
| 1778061427 | 9.44° C | 98% | 1009.1 hPa | 0 mm | - | 0 W/m² | - |
| 1778061123 | 9.44° C | 98% | 1008.9 hPa | 0 mm | - | 0 W/m² | - |
| 1778060821 | 10° C | 98% | 1008.8 hPa | 0 mm | - | 0 W/m² | - |
| 1778060518 | 10° C | 98% | 1008.8 hPa | 0 mm | - | 0 W/m² | - |
| 1778060217 | 10° C | 98% | 1008.8 hPa | 0 mm | - | 0 W/m² | - |
| 1778059913 | 10° C | 98% | 1008.9 hPa | 0 mm | - | 0 W/m² | - |
| 1778059611 | 10° C | 98% | 1008.9 hPa | 0 mm | - | 0 W/m² | - |
| 1778059308 | 10° C | 98% | 1009 hPa | 0 mm | - | 0 W/m² | - |
| 1778059006 | 10° C | 98% | 1009 hPa | 0 mm | - | 0 W/m² | - |
| 1778058703 | 10° C | 98% | 1009.2 hPa | 0 mm | - | 0 W/m² | - |
| 1778058401 | 10° C | 98% | 1009.1 hPa | 0 mm | - | 0 W/m² | - |
| 1778058097 | 10° C | 98% | 1009.3 hPa | 0 mm | - | 0 W/m² | - |
| 1778057795 | 10° C | 98% | 1009.1 hPa | 0 mm | - | 0 W/m² | - |
| 1778057491 | 10° C | 98% | 1009.2 hPa | 1.78 mm | - | 0 W/m² | - |
| 1778057187 | 10° C | 98% | 1009.3 hPa | 6.6 mm | - | 0 W/m² | - |
| 1778056885 | 10° C | 98% | 1009.2 hPa | 18.03 mm | - | 0 W/m² | - |
| 1778056581 | 10° C | 98% | 1008.8 hPa | 10.67 mm | - | 0 W/m² | - |
| 1778056279 | 10° C | 98% | 1009.6 hPa | 9.65 mm | - | 0 W/m² | - |
| 1778055975 | 10° C | 98% | 1008.6 hPa | 7.87 mm | - | 0 W/m² | - |
| 1778055671 | 10° C | 98% | 1008.5 hPa | 0 mm | - | 0 W/m² | - |
| 1778055369 | 10° C | 98% | 1008.4 hPa | 1.27 mm | - | 0 W/m² | - |
| 1778055067 | 10° C | 98% | 1008.3 hPa | 1.27 mm | - | 0 W/m² | - |
| 1778054764 | 10° C | 98% | 1008.4 hPa | 3.05 mm | - | 0 W/m² | - |
| 1778054461 | 10° C | 98% | 1008.4 hPa | 4.83 mm | - | 0 W/m² | - |
* Rain latest hour (hover to see other rain measurements)
** Current wind speed in m/s (hover to see current wind gust speed)